Time,TemperatureF,DewpointF,PressureIn,WindDirection,WindDirectionDegrees,WindSpeedMPH,WindSpeedGustMPH,Humidity,HourlyPrecipIn,Conditions,Clouds,dailyrainin,SoftwareType,DateUTC
2013-07-10 00:03:00,87.0,66.1,29.98,SSE,157,3.0,6.0,50,0.00,,,0.00,Wunderground v.1.15,2013-07-10 05:03:00,
2013-07-10 00:09:00,87.0,66.1,29.99,SSE,157,3.0,6.0,50,0.00,,,0.00,Wunderground v.1.15,2013-07-10 05:09:00,
2013-07-10 00:14:00,86.9,66.0,29.99,South,181,3.0,3.0,50,0.00,,,0.00,Wunderground v.1.15,2013-07-10 05:14:00,
2013-07-10 00:20:00,86.8,65.9,29.99,SSE,167,2.0,2.0,50,0.00,,,0.00,Wunderground v.1.15,2013-07-10 05:20:00,
2013-07-10 00:25:00,86.8,65.9,29.99,SSE,163,3.0,6.0,50,0.00,,,0.00,Wunderground v.1.15,2013-07-10 05:25:00,
2013-07-10 00:31:00,86.6,66.3,29.99,SSE,157,3.0,3.0,51,0.00,,,0.00,Wunderground v.1.15,2013-07-10 05:31:00,
2013-07-10 00:37:00,86.4,66.1,29.99,South,170,3.0,4.0,51,0.00,,,0.00,Wunderground v.1.15,2013-07-10 05:37:00,
2013-07-10 00:42:00,86.3,66.6,29.99,SSE,160,4.0,6.0,52,0.00,,,0.00,Wunderground v.1.15,2013-07-10 05:42:00,
2013-07-10 00:48:00,86.3,67.7,29.99,SSW,194,4.0,6.0,54,0.00,,,0.00,Wunderground v.1.15,2013-07-10 05:48:00,
2013-07-10 00:54:00,86.1,67.5,29.99,SSW,201,3.0,4.0,54,0.00,,,0.00,Wunderground v.1.15,2013-07-10 05:54:00,
2013-07-10 00:59:00,85.9,68.9,29.99,SSE,153,4.0,9.0,57,0.00,,,0.00,Wunderground v.1.15,2013-07-10 05:59:00,
2013-07-10 01:04:00,85.5,68.5,29.99,SSW,207,4.0,9.0,57,0.00,,,0.00,Wunderground v.1.15,2013-07-10 06:04:00,
2013-07-10 01:09:00,85.1,68.2,29.99,SSE,161,4.0,9.0,57,0.00,,,0.00,Wunderground v.1.15,2013-07-10 06:09:00,
2013-07-10 01:14:00,84.8,67.9,29.99,SSE,167,3.0,6.0,57,0.00,,,0.00,Wunderground v.1.15,2013-07-10 06:14:00,
2013-07-10 01:20:00,84.5,68.1,29.99,South,188,4.0,8.0,58,0.00,,,0.00,Wunderground v.1.15,2013-07-10 06:20:00,
2013-07-10 01:26:00,84.3,68.0,29.99,SSW,211,8.0,10.0,59,0.00,,,0.00,weatherlink.com 1.10,2013-07-10 06:26:00,
2013-07-10 01:32:00,84.3,68.9,29.99,SSE,163,4.0,5.0,60,0.00,,,0.00,Wunderground v.1.15,2013-07-10 06:32:00,
2013-07-10 01:37:00,84.3,68.9,29.99,South,169,4.0,7.0,60,0.00,,,0.00,Wunderground v.1.15,2013-07-10 06:37:00,
2013-07-10 01:43:00,84.4,69.0,30.00,South,176,4.0,7.0,60,0.00,,,0.00,Wunderground v.1.15,2013-07-10 06:43:00,
2013-07-10 01:49:00,84.4,69.5,30.00,South,188,4.0,7.0,61,0.00,,,0.00,Wunderground v.1.15,2013-07-10 06:49:00,
2013-07-10 01:54:00,84.4,69.5,29.99,SSE,159,4.0,5.0,61,0.00,,,0.00,Wunderground v.1.15,2013-07-10 06:54:00,
2013-07-10 02:00:00,84.4,69.5,29.99,South,176,4.0,5.0,61,0.00,,,0.00,Wunderground v.1.15,2013-07-10 07:00:00,
2013-07-10 02:06:00,84.3,69.4,29.99,SSE,163,4.0,6.0,61,0.00,,,0.00,Wunderground v.1.15,2013-07-10 07:06:00,
2013-07-10 02:12:00,84.2,70.0,29.99,SSW,193,4.0,13.0,62,0.00,,,0.00,weatherlink.com 1.10,2013-07-10 07:12:00,
2013-07-10 02:17:00,84.1,69.7,29.99,SSW,196,5.0,7.0,62,0.00,,,0.00,Wunderground v.1.15,2013-07-10 07:17:00,
2013-07-10 02:22:00,84.0,69.6,29.99,SSW,194,5.0,5.0,62,0.00,,,0.00,Wunderground v.1.15,2013-07-10 07:22:00,
2013-07-10 02:28:00,83.9,70.0,29.99,SSE,157,4.0,6.0,63,0.00,,,0.00,Wunderground v.1.15,2013-07-10 07:28:00,
2013-07-10 02:34:00,83.7,69.8,29.99,SSE,158,4.0,6.0,63,0.00,,,0.00,Wunderground v.1.15,2013-07-10 07:34:00,
2013-07-10 02:39:00,83.6,70.1,29.99,South,175,4.0,7.0,64,0.00,,,0.00,Wunderground v.1.15,2013-07-10 07:39:00,
2013-07-10 02:44:00,83.6,70.1,29.99,South,169,4.0,10.0,64,0.00,,,0.00,Wunderground v.1.15,2013-07-10 07:44:00,
2013-07-10 02:50:00,83.5,70.0,29.99,SSE,153,5.0,9.0,64,0.00,,,0.00,Wunderground v.1.15,2013-07-10 07:50:00,
2013-07-10 02:55:00,83.5,70.5,29.99,SSE,161,5.0,12.0,65,0.00,,,0.00,Wunderground v.1.15,2013-07-10 07:55:00,
2013-07-10 03:00:00,83.5,70.5,29.99,South,175,4.0,8.0,65,0.00,,,0.00,Wunderground v.1.15,2013-07-10 08:00:00,
2013-07-10 03:06:00,83.4,70.8,29.99,South,173,4.0,8.0,66,0.00,,,0.00,Wunderground v.1.15,2013-07-10 08:06:00,
2013-07-10 03:12:00,83.3,71.0,29.99,SSE,164,3.0,9.0,66,0.00,,,0.00,weatherlink.com 1.10,2013-07-10 08:12:00,
2013-07-10 03:17:00,83.3,70.8,29.99,South,186,4.0,6.0,66,0.00,,,0.00,Wunderground v.1.15,2013-07-10 08:17:00,
2013-07-10 03:23:00,83.2,71.1,29.99,SSE,166,4.0,4.0,67,0.00,,,0.00,Wunderground v.1.15,2013-07-10 08:23:00,
2013-07-10 03:29:00,83.1,71.0,29.99,SSE,167,4.0,7.0,67,0.00,,,0.00,Wunderground v.1.15,2013-07-10 08:29:00,
2013-07-10 03:34:00,83.1,71.4,29.99,SSE,168,3.0,5.0,68,0.00,,,0.00,Wunderground v.1.15,2013-07-10 08:34:00,
2013-07-10 03:40:00,82.9,71.3,29.99,SSE,163,4.0,5.0,68,0.00,,,0.00,Wunderground v.1.15,2013-07-10 08:40:00,
2013-07-10 03:46:00,82.9,71.3,29.99,SSE,157,3.0,6.0,68,0.00,,,0.00,Wunderground v.1.15,2013-07-10 08:46:00,
2013-07-10 03:51:00,82.8,71.6,29.99,South,190,3.0,3.0,69,0.00,,,0.00,Wunderground v.1.15,2013-07-10 08:51:00,
2013-07-10 03:57:00,82.7,71.9,29.99,South,179,4.0,12.0,70,0.00,,,0.00,Wunderground v.1.15,2013-07-10 08:57:00,
2013-07-10 04:02:00,82.5,71.7,29.99,SSE,165,4.0,6.0,70,0.00,,,0.00,Wunderground v.1.15,2013-07-10 09:02:00,
2013-07-10 04:07:00,82.3,72.0,29.99,South,190,4.0,6.0,71,0.00,,,0.00,Wunderground v.1.15,2013-07-10 09:07:00,
2013-07-10 04:13:00,82.1,72.2,29.99,South,173,3.0,6.0,72,0.00,,,0.00,Wunderground v.1.15,2013-07-10 09:13:00,
2013-07-10 04:18:00,82.1,72.2,29.99,South,173,3.0,6.0,72,0.00,,,0.00,Wunderground v.1.15,2013-07-10 09:18:00,
2013-07-10 04:24:00,82.0,72.1,29.98,SSE,147,4.0,4.0,72,0.00,,,0.00,Wunderground v.1.15,2013-07-10 09:24:00,
2013-07-10 04:30:00,82.0,72.1,29.99,SSE,165,3.0,3.0,72,0.00,,,0.00,Wunderground v.1.15,2013-07-10 09:30:00,
2013-07-10 04:36:00,81.9,72.0,29.98,South,188,3.0,5.0,72,0.00,,,0.00,Wunderground v.1.15,2013-07-10 09:36:00,
2013-07-10 04:42:00,81.9,72.0,29.98,SSE,153,3.0,5.0,72,0.00,,,0.00,Wunderground v.1.15,2013-07-10 09:42:00,
2013-07-10 04:48:00,81.9,72.0,29.99,SSE,155,3.0,7.0,72,0.00,,,0.00,Wunderground v.1.15,2013-07-10 09:48:00,
2013-07-10 04:53:00,81.9,72.0,29.99,South,175,4.0,4.0,72,0.00,,,0.00,Wunderground v.1.15,2013-07-10 09:53:00,
2013-07-10 04:59:00,81.9,72.4,29.99,South,177,3.0,9.0,73,0.00,,,0.00,Wunderground v.1.15,2013-07-10 09:59:00,
2013-07-10 05:05:00,81.9,72.4,29.99,South,173,4.0,5.0,73,0.00,,,0.00,Wunderground v.1.15,2013-07-10 10:05:00,
2013-07-10 05:11:00,81.8,72.3,29.99,SSE,167,4.0,4.0,73,0.00,,,0.00,Wunderground v.1.15,2013-07-10 10:11:00,
2013-07-10 05:16:00,81.7,72.2,29.99,SSW,209,3.0,8.0,73,0.00,,,0.00,Wunderground v.1.15,2013-07-10 10:16:00,
2013-07-10 05:21:00,81.7,72.2,29.99,SSW,195,3.0,3.0,73,0.00,,,0.00,Wunderground v.1.15,2013-07-10 10:21:00,
2013-07-10 05:26:00,81.7,72.2,30.00,SSE,167,3.0,6.0,73,0.00,,,0.00,Wunderground v.1.15,2013-07-10 10:26:00,
2013-07-10 05:32:00,81.7,72.2,30.00,South,171,3.0,4.0,73,0.00,,,0.00,Wunderground v.1.15,2013-07-10 10:32:00,
2013-07-10 05:38:00,81.7,72.2,30.00,South,190,3.0,5.0,73,0.00,,,0.00,Wunderground v.1.15,2013-07-10 10:38:00,
2013-07-10 05:44:00,81.7,72.2,30.00,SSE,165,3.0,4.0,73,0.00,,,0.00,Wunderground v.1.15,2013-07-10 10:44:00,
2013-07-10 05:50:00,81.5,72.4,30.00,South,187,3.0,5.0,74,0.00,,,0.00,Wunderground v.1.15,2013-07-10 10:50:00,
2013-07-10 05:56:00,81.5,72.4,30.00,SSE,157,3.0,8.0,74,0.00,,,0.00,Wunderground v.1.15,2013-07-10 10:56:00,
2013-07-10 06:02:00,81.4,72.7,30.00,SSE,161,3.0,5.0,75,0.00,,,0.00,Wunderground v.1.15,2013-07-10 11:02:00,
2013-07-10 06:07:00,81.4,72.3,30.00,SSE,166,3.0,6.0,74,0.00,,,0.00,Wunderground v.1.15,2013-07-10 11:07:00,
2013-07-10 06:13:00,81.3,72.2,30.00,SSE,163,4.0,4.0,74,0.00,,,0.00,Wunderground v.1.15,2013-07-10 11:13:00,
2013-07-10 06:18:00,81.2,72.1,30.00,South,182,3.0,5.0,74,0.00,,,0.00,Wunderground v.1.15,2013-07-10 11:18:00,
2013-07-10 06:24:00,81.2,72.5,30.01,South,181,3.0,7.0,75,0.00,,,0.00,Wunderground v.1.15,2013-07-10 11:24:00,
2013-07-10 06:29:00,81.2,72.5,30.01,SSE,159,3.0,7.0,75,0.00,,,0.00,Wunderground v.1.15,2013-07-10 11:29:00,
2013-07-10 06:35:00,81.1,72.4,30.01,SSE,161,3.0,4.0,75,0.00,,,0.00,Wunderground v.1.15,2013-07-10 11:35:00,
2013-07-10 06:41:00,81.1,72.4,30.01,SSW,192,3.0,4.0,75,0.00,,,0.00,Wunderground v.1.15,2013-07-10 11:41:00,
2013-07-10 06:47:00,81.1,72.4,30.01,South,176,3.0,5.0,75,0.00,,,0.00,Wunderground v.1.15,2013-07-10 11:47:00,
2013-07-10 06:53:00,81.1,72.4,30.01,South,171,3.0,5.0,75,0.00,,,0.00,Wunderground v.1.15,2013-07-10 11:53:00,
2013-07-10 06:58:00,81.0,73.1,30.01,SSW,206,3.0,7.0,77,0.00,,,0.00,Wunderground v.1.15,2013-07-10 11:58:00,
2013-07-10 07:04:00,80.6,72.7,30.01,SSW,210,3.0,4.0,77,0.00,,,0.00,Wunderground v.1.15,2013-07-10 12:04:00,
2013-07-10 07:10:00,80.5,73.0,30.02,South,171,3.0,3.0,78,0.00,,,0.00,Wunderground v.1.15,2013-07-10 12:10:00,
2013-07-10 07:15:00,80.5,73.0,30.02,SSE,147,3.0,4.0,78,0.00,,,0.00,Wunderground v.1.15,2013-07-10 12:15:00,
2013-07-10 07:21:00,80.5,73.0,30.02,SSE,163,3.0,5.0,78,0.00,,,0.00,Wunderground v.1.15,2013-07-10 12:21:00,
2013-07-10 07:26:00,80.5,73.0,30.02,SSW,194,3.0,5.0,78,0.00,,,0.00,Wunderground v.1.15,2013-07-10 12:26:00,
2013-07-10 07:31:00,80.5,73.0,30.02,South,171,3.0,5.0,78,0.00,,,0.00,Wunderground v.1.15,2013-07-10 12:31:00,
2013-07-10 07:36:00,80.6,73.1,30.02,SSW,202,2.0,5.0,78,0.00,,,0.00,Wunderground v.1.15,2013-07-10 12:36:00,
2013-07-10 07:42:00,80.6,73.0,30.02,SSE,153,3.0,7.0,78,0.00,,,0.00,weatherlink.com 1.10,2013-07-10 12:42:00,
2013-07-10 07:47:00,80.7,73.2,30.02,South,179,3.0,6.0,78,0.00,,,0.00,Wunderground v.1.15,2013-07-10 12:47:00,
2013-07-10 07:53:00,80.7,72.8,30.02,South,178,2.0,3.0,77,0.00,,,0.00,Wunderground v.1.15,2013-07-10 12:53:00,
2013-07-10 07:59:00,80.8,73.0,30.02,South,173,2.0,7.0,78,0.00,,,0.00,weatherlink.com 1.10,2013-07-10 12:59:00,
2013-07-10 08:04:00,80.8,72.9,30.02,SSE,166,3.0,4.0,77,0.00,,,0.00,Wunderground v.1.15,2013-07-10 13:04:00,
2013-07-10 08:10:00,80.9,73.0,30.02,South,175,3.0,3.0,77,0.00,,,0.00,Wunderground v.1.15,2013-07-10 13:10:00,
2013-07-10 08:16:00,80.9,73.4,30.02,South,172,3.0,3.0,78,0.00,,,0.00,Wunderground v.1.15,2013-07-10 13:16:00,
2013-07-10 08:22:00,81.0,73.1,30.02,South,175,2.0,2.0,77,0.00,,,0.00,Wunderground v.1.15,2013-07-10 13:22:00,
2013-07-10 08:28:00,81.2,73.3,30.02,SSE,155,1.0,5.0,77,0.00,,,0.00,Wunderground v.1.15,2013-07-10 13:28:00,
2013-07-10 08:34:00,81.8,73.5,30.02,South,180,1.0,3.0,76,0.00,,,0.00,Wunderground v.1.15,2013-07-10 13:34:00,
2013-07-10 08:39:00,82.5,74.2,30.03,South,187,2.0,3.0,76,0.00,,,0.00,Wunderground v.1.15,2013-07-10 13:39:00,
2013-07-10 08:45:00,83.4,74.2,30.03,SSE,166,1.0,2.0,74,0.00,,,0.00,Wunderground v.1.15,2013-07-10 13:45:00,
2013-07-10 08:51:00,83.5,73.9,30.03,SSE,154,1.0,1.0,73,0.00,,,0.00,Wunderground v.1.15,2013-07-10 13:51:00,
2013-07-10 08:57:00,83.4,73.4,30.03,South,173,1.0,7.0,72,0.00,,,0.00,Wunderground v.1.15,2013-07-10 13:57:00,
2013-07-10 09:03:00,83.6,74.0,30.03,SSE,163,2.0,5.0,73,0.00,,,0.00,Wunderground v.1.15,2013-07-10 14:03:00,
2013-07-10 09:09:00,84.1,74.1,30.02,SSE,168,2.0,5.0,72,0.00,,,0.00,Wunderground v.1.15,2013-07-10 14:09:00,
2013-07-10 09:15:00,84.8,74.3,30.02,SSE,165,1.0,2.0,71,0.00,,,0.00,Wunderground v.1.15,2013-07-10 14:15:00,
2013-07-10 09:20:00,85.6,74.7,30.02,South,171,1.0,1.0,70,0.00,,,0.00,Wunderground v.1.15,2013-07-10 14:20:00,
2013-07-10 09:25:00,86.3,74.5,30.02,South,176,2.0,3.0,68,0.00,,,0.00,Wunderground v.1.15,2013-07-10 14:25:00,
2013-07-10 09:31:00,87.0,74.3,30.02,SSW,192,2.0,4.0,66,0.00,,,0.00,Wunderground v.1.15,2013-07-10 14:31:00,
2013-07-10 09:36:00,87.6,73.9,30.02,SSE,154,1.0,4.0,64,0.00,,,0.00,Wunderground v.1.15,2013-07-10 14:36:00,
2013-07-10 09:41:00,88.1,73.9,30.02,SE,143,1.0,2.0,63,0.00,,,0.00,Wunderground v.1.15,2013-07-10 14:41:00,
2013-07-10 09:47:00,88.6,74.4,30.02,South,171,1.0,4.0,63,0.00,,,0.00,Wunderground v.1.15,2013-07-10 14:47:00,
2013-07-10 09:53:00,88.9,73.7,30.02,South,169,2.0,5.0,61,0.00,,,0.00,Wunderground v.1.15,2013-07-10 14:53:00,
2013-07-10 09:59:00,89.1,73.9,30.02,South,182,3.0,5.0,61,0.00,,,0.00,Wunderground v.1.15,2013-07-10 14:59:00,
2013-07-10 10:05:00,89.3,74.1,30.02,SSW,202,2.0,3.0,61,0.00,,,0.00,Wunderground v.1.15,2013-07-10 15:05:00,
2013-07-10 10:10:00,89.7,74.0,30.02,South,175,2.0,4.0,60,0.00,,,0.00,Wunderground v.1.15,2013-07-10 15:10:00,
2013-07-10 10:15:00,90.0,74.2,30.02,South,175,2.0,4.0,60,0.00,,,0.00,Wunderground v.1.15,2013-07-10 15:15:00,
2013-07-10 10:20:00,90.3,74.0,30.02,SSE,167,2.0,2.0,59,0.00,,,0.00,Wunderground v.1.15,2013-07-10 15:20:00,
2013-07-10 10:25:00,90.5,73.2,30.02,SSE,160,1.0,3.0,57,0.00,,,0.00,Wunderground v.1.15,2013-07-10 15:25:00,
2013-07-10 10:30:00,90.6,73.8,30.02,South,188,2.0,2.0,58,0.00,,,0.00,Wunderground v.1.15,2013-07-10 15:30:00,
2013-07-10 10:36:00,90.3,73.5,30.02,South,176,2.0,4.0,58,0.00,,,0.00,Wunderground v.1.15,2013-07-10 15:36:00,
2013-07-10 10:42:00,90.6,73.3,30.02,SSE,168,2.0,3.0,57,0.00,,,0.00,Wunderground v.1.15,2013-07-10 15:42:00,
2013-07-10 10:47:00,90.8,72.9,30.02,SSW,202,2.0,3.0,56,0.00,,,0.00,Wunderground v.1.15,2013-07-10 15:47:00,
2013-07-10 10:53:00,90.9,73.6,30.02,SSE,165,2.0,2.0,57,0.00,,,0.00,Wunderground v.1.15,2013-07-10 15:53:00,
2013-07-10 10:59:00,91.5,73.6,30.02,SSE,161,2.0,6.0,56,0.00,,,0.00,Wunderground v.1.15,2013-07-10 15:59:00,
2013-07-10 11:04:00,92.0,75.1,30.02,South,171,2.0,5.0,58,0.00,,,0.00,Wunderground v.1.15,2013-07-10 16:04:00,
2013-07-10 11:09:00,92.2,73.7,30.02,South,180,2.0,5.0,55,0.00,,,0.00,Wunderground v.1.15,2013-07-10 16:09:00,
2013-07-10 11:14:00,92.4,72.8,30.02,SSE,155,1.0,4.0,53,0.00,,,0.00,Wunderground v.1.15,2013-07-10 16:14:00,
2013-07-10 11:20:00,92.3,73.8,30.02,South,188,2.0,5.0,55,0.00,,,0.00,Wunderground v.1.15,2013-07-10 16:20:00,
2013-07-10 11:26:00,92.9,73.8,30.02,WNW,302,2.0,5.0,54,0.00,,,0.00,Wunderground v.1.15,2013-07-10 16:26:00,
2013-07-10 11:32:00,93.4,72.6,30.02,South,177,2.0,2.0,51,0.00,,,0.00,Wunderground v.1.15,2013-07-10 16:32:00,
2013-07-10 11:37:00,92.9,72.1,30.02,SSE,168,2.0,4.0,51,0.00,,,0.00,Wunderground v.1.15,2013-07-10 16:37:00,
2013-07-10 11:42:00,92.6,72.4,30.02,South,184,1.0,2.0,52,0.00,,,0.00,Wunderground v.1.15,2013-07-10 16:42:00,
2013-07-10 11:47:00,92.0,71.9,30.02,SSW,192,1.0,2.0,52,0.00,,,0.00,Wunderground v.1.15,2013-07-10 16:47:00,
2013-07-10 11:52:00,92.9,73.2,30.02,South,171,2.0,2.0,53,0.00,,,0.00,Wunderground v.1.15,2013-07-10 16:52:00,
2013-07-10 11:57:00,93.8,72.9,30.02,South,188,2.0,5.0,51,0.00,,,0.00,Wunderground v.1.15,2013-07-10 16:57:00,
2013-07-10 12:03:00,93.7,72.3,30.02,SSE,160,2.0,3.0,50,0.00,,,0.00,Wunderground v.1.15,2013-07-10 17:03:00,
2013-07-10 12:08:00,93.3,72.5,30.01,South,184,2.0,3.0,51,0.00,,,0.00,Wunderground v.1.15,2013-07-10 17:08:00,
2013-07-10 12:13:00,93.3,73.0,30.01,South,181,2.0,5.0,52,0.00,,,0.00,Wunderground v.1.15,2013-07-10 17:13:00,
2013-07-10 12:19:00,94.0,72.5,30.01,South,177,2.0,5.0,50,0.00,,,0.00,Wunderground v.1.15,2013-07-10 17:19:00,
2013-07-10 12:24:00,94.6,72.5,30.01,South,184,2.0,2.0,49,0.00,,,0.00,Wunderground v.1.15,2013-07-10 17:24:00,
2013-07-10 12:29:00,94.8,71.4,30.01,South,175,2.0,2.0,47,0.00,,,0.00,Wunderground v.1.15,2013-07-10 17:29:00,
2013-07-10 12:35:00,94.5,71.8,30.01,SSE,159,2.0,5.0,48,0.00,,,0.00,Wunderground v.1.15,2013-07-10 17:35:00,
2013-07-10 12:41:00,95.3,74.3,30.01,SSW,196,2.0,3.0,51,0.00,,,0.00,Wunderground v.1.15,2013-07-10 17:41:00,
2013-07-10 12:46:00,95.1,71.1,30.00,SSE,153,2.0,4.0,46,0.00,,,0.00,Wunderground v.1.15,2013-07-10 17:46:00,
2013-07-10 12:52:00,94.6,71.9,30.00,South,171,2.0,2.0,48,0.00,,,0.00,Wunderground v.1.15,2013-07-10 17:52:00,
2013-07-10 12:58:00,95.1,71.7,30.00,SSE,161,1.0,5.0,47,0.00,,,0.00,Wunderground v.1.15,2013-07-10 17:58:00,
2013-07-10 13:04:00,96.1,72.0,30.00,South,190,2.0,3.0,46,0.00,,,0.00,Wunderground v.1.15,2013-07-10 18:04:00,
2013-07-10 13:09:00,96.2,72.1,30.00,SSE,155,2.0,3.0,46,0.00,,,0.00,Wunderground v.1.15,2013-07-10 18:09:00,
2013-07-10 13:15:00,96.3,72.0,29.99,South,174,3.0,5.0,46,0.00,,,0.00,weatherlink.com 1.10,2013-07-10 18:15:00,
2013-07-10 13:20:00,96.8,72.0,29.99,SE,127,2.0,2.0,45,0.00,,,0.00,Wunderground v.1.15,2013-07-10 18:20:00,
2013-07-10 13:25:00,97.1,71.6,29.99,SSW,204,2.0,4.0,44,0.00,,,0.00,Wunderground v.1.15,2013-07-10 18:25:00,
2013-07-10 13:30:00,96.9,71.4,29.99,South,169,2.0,2.0,44,0.00,,,0.00,Wunderground v.1.15,2013-07-10 18:30:00,
2013-07-10 13:36:00,97.1,70.2,29.99,South,173,1.0,3.0,42,0.00,,,0.00,Wunderground v.1.15,2013-07-10 18:36:00,
2013-07-10 13:41:00,97.1,71.6,29.99,SSE,166,1.0,1.0,44,0.00,,,0.00,Wunderground v.1.15,2013-07-10 18:41:00,
2013-07-10 13:47:00,97.4,70.5,29.99,NNW,344,1.0,1.0,42,0.00,,,0.00,Wunderground v.1.15,2013-07-10 18:47:00,
2013-07-10 13:52:00,97.8,74.2,29.99,SSE,157,1.0,1.0,47,0.00,,,0.00,Wunderground v.1.15,2013-07-10 18:52:00,
2013-07-10 13:58:00,97.6,73.3,29.98,South,178,1.0,5.0,46,0.00,,,0.00,Wunderground v.1.15,2013-07-10 18:58:00,
2013-07-10 14:04:00,97.6,69.9,29.98,South,169,1.0,4.0,41,0.00,,,0.00,Wunderground v.1.15,2013-07-10 19:04:00,
2013-07-10 14:10:00,97.9,70.9,29.98,South,169,1.0,2.0,42,0.00,,,0.00,Wunderground v.1.15,2013-07-10 19:10:00,
2013-07-10 14:16:00,98.3,72.0,29.98,NNE,33,1.0,2.0,43,0.00,,,0.00,Wunderground v.1.15,2013-07-10 19:16:00,
2013-07-10 14:22:00,98.5,73.5,29.98,South,178,1.0,3.0,45,0.00,,,0.00,Wunderground v.1.15,2013-07-10 19:22:00,
2013-07-10 14:27:00,98.8,72.4,29.97,South,186,1.0,3.0,43,0.00,,,0.00,Wunderground v.1.15,2013-07-10 19:27:00,
2013-07-10 14:32:00,98.9,71.1,29.97,SSE,161,1.0,1.0,41,0.00,,,0.00,Wunderground v.1.15,2013-07-10 19:32:00,
2013-07-10 14:37:00,98.8,69.5,29.97,South,180,0.0,1.0,39,0.00,,,0.00,Wunderground v.1.15,2013-07-10 19:37:00,
2013-07-10 14:43:00,98.2,70.5,29.97,SSE,159,1.0,1.0,41,0.00,,,0.00,Wunderground v.1.15,2013-07-10 19:43:00,
2013-07-10 14:48:00,98.3,70.6,29.97,South,180,1.0,3.0,41,0.00,,,0.00,Wunderground v.1.15,2013-07-10 19:48:00,
2013-07-10 14:54:00,98.7,70.9,29.96,South,187,2.0,3.0,41,0.00,,,0.00,Wunderground v.1.15,2013-07-10 19:54:00,
2013-07-10 14:59:00,99.0,69.7,29.96,South,181,1.0,5.0,39,0.00,,,0.00,Wunderground v.1.15,2013-07-10 19:59:00,
2013-07-10 15:04:00,99.7,71.8,29.96,South,181,1.0,1.0,41,0.00,,,0.00,Wunderground v.1.15,2013-07-10 20:04:00,
2013-07-10 15:10:00,99.9,69.7,29.96,South,169,1.0,2.0,38,0.00,,,0.00,Wunderground v.1.15,2013-07-10 20:10:00,
2013-07-10 15:15:00,99.4,69.3,29.96,SSW,199,1.0,2.0,38,0.00,,,0.00,Wunderground v.1.15,2013-07-10 20:15:00,
2013-07-10 15:21:00,99.5,71.6,29.96,SSE,147,1.0,1.0,41,0.00,,,0.00,Wunderground v.1.15,2013-07-10 20:21:00,
2013-07-10 15:27:00,100.1,69.9,29.95,SSE,159,0.0,2.0,38,0.00,,,0.00,Wunderground v.1.15,2013-07-10 20:27:00,
2013-07-10 15:32:00,100.3,69.3,29.95,SSE,164,1.0,1.0,37,0.00,,,0.00,Wunderground v.1.15,2013-07-10 20:32:00,
2013-07-10 15:37:00,99.9,69.7,29.95,West,274,1.0,1.0,38,0.00,,,0.00,Wunderground v.1.15,2013-07-10 20:37:00,
2013-07-10 15:43:00,100.1,69.1,29.95,SSE,163,0.0,2.0,37,0.00,,,0.00,Wunderground v.1.15,2013-07-10 20:43:00,
2013-07-10 15:49:00,100.0,68.3,29.94,SSE,155,1.0,2.0,36,0.00,,,0.00,Wunderground v.1.15,2013-07-10 20:49:00,
2013-07-10 15:54:00,100.2,70.0,29.94,SSE,159,1.0,5.0,38,0.00,,,0.00,Wunderground v.1.15,2013-07-10 20:54:00,
2013-07-10 16:00:00,100.8,69.0,29.93,South,169,0.0,5.0,36,0.00,,,0.00,weatherlink.com 1.10,2013-07-10 21:00:00,
2013-07-10 16:05:00,101.0,68.3,29.93,South,180,1.0,2.0,35,0.00,,,0.00,Wunderground v.1.15,2013-07-10 21:05:00,
2013-07-10 16:10:00,101.0,69.1,29.93,SSE,165,2.0,2.0,36,0.00,,,0.00,Wunderground v.1.15,2013-07-10 21:10:00,
2013-07-10 16:16:00,100.9,68.2,29.92,South,169,1.0,2.0,35,0.00,,,0.00,Wunderground v.1.15,2013-07-10 21:16:00,
2013-07-10 16:22:00,101.1,69.2,29.92,WNW,289,1.0,1.0,36,0.00,,,0.00,Wunderground v.1.15,2013-07-10 21:22:00,
2013-07-10 16:28:00,101.1,69.2,29.92,SSW,202,0.0,1.0,36,0.00,,,0.00,Wunderground v.1.15,2013-07-10 21:28:00,
2013-07-10 16:33:00,101.2,68.5,29.92,NW,307,0.0,1.0,35,0.00,,,0.00,Wunderground v.1.15,2013-07-10 21:33:00,
2013-07-10 16:38:00,101.1,68.4,29.91,ESE,117,0.0,1.0,35,0.00,,,0.00,Wunderground v.1.15,2013-07-10 21:38:00,
2013-07-10 16:44:00,101.2,68.5,29.91,SSE,159,1.0,3.0,35,0.00,,,0.00,Wunderground v.1.15,2013-07-10 21:44:00,
2013-07-10 16:50:00,101.5,69.6,29.91,SSE,165,1.0,1.0,36,0.00,,,0.00,Wunderground v.1.15,2013-07-10 21:50:00,
2013-07-10 16:56:00,101.4,69.5,29.90,West,273,0.0,5.0,36,0.00,,,0.00,Wunderground v.1.15,2013-07-10 21:56:00,
2013-07-10 17:02:00,101.6,68.8,29.90,SE,130,0.0,1.0,35,0.00,,,0.00,Wunderground v.1.15,2013-07-10 22:02:00,
2013-07-10 17:07:00,102.1,70.1,29.90,SE,141,0.0,1.0,36,0.00,,,0.00,Wunderground v.1.15,2013-07-10 22:07:00,
2013-07-10 17:13:00,102.3,70.3,29.89,SE,141,0.0,0.0,36,0.00,,,0.00,Wunderground v.1.15,2013-07-10 22:13:00,
2013-07-10 17:18:00,102.4,70.4,29.89,ESE,115,0.0,0.0,36,0.00,,,0.00,Wunderground v.1.15,2013-07-10 22:18:00,
2013-07-10 17:24:00,102.4,70.4,29.89,SE,132,0.0,2.0,36,0.00,,,0.00,Wunderground v.1.15,2013-07-10 22:24:00,
2013-07-10 17:29:00,102.5,67.9,29.88,North,10,0.0,2.0,33,0.00,,,0.00,Wunderground v.1.15,2013-07-10 22:29:00,
2013-07-10 17:34:00,102.6,69.7,29.88,SSW,199,0.0,1.0,35,0.00,,,0.00,Wunderground v.1.15,2013-07-10 22:34:00,
2013-07-10 17:40:00,102.5,69.6,29.88,West,271,1.0,1.0,35,0.00,,,0.00,Wunderground v.1.15,2013-07-10 22:40:00,
2013-07-10 17:45:00,102.5,70.5,29.88,NNE,19,0.0,2.0,36,0.00,,,0.00,Wunderground v.1.15,2013-07-10 22:45:00,
2013-07-10 17:51:00,102.3,71.1,29.88,SSE,151,0.0,0.0,37,0.00,,,0.00,Wunderground v.1.15,2013-07-10 22:51:00,
2013-07-10 17:57:00,102.1,68.4,29.88,SSE,167,0.0,2.0,34,0.00,,,0.00,Wunderground v.1.15,2013-07-10 22:57:00,
2013-07-10 18:03:00,102.2,68.5,29.88,SSE,159,0.0,1.0,34,0.00,,,0.00,Wunderground v.1.15,2013-07-10 23:03:00,
2013-07-10 18:08:00,102.3,68.6,29.88,SE,126,0.0,2.0,34,0.00,,,0.00,Wunderground v.1.15,2013-07-10 23:08:00,
2013-07-10 18:13:00,102.5,68.8,29.88,East,85,0.0,0.0,34,0.00,,,0.00,Wunderground v.1.15,2013-07-10 23:13:00,
2013-07-10 18:18:00,102.6,69.7,29.88,ESE,111,0.0,0.0,35,0.00,,,0.00,Wunderground v.1.15,2013-07-10 23:18:00,
2013-07-10 18:24:00,102.9,68.3,29.88,SSE,155,0.0,1.0,33,0.00,,,0.00,Wunderground v.1.15,2013-07-10 23:24:00,
2013-07-10 18:30:00,102.9,68.0,29.88,SSE,155,0.0,2.0,32,0.00,,,0.00,weatherlink.com 1.10,2013-07-10 23:30:00,
2013-07-10 18:36:00,102.5,67.9,29.88,SSE,155,0.0,1.0,33,0.00,,,0.00,Wunderground v.1.15,2013-07-10 23:36:00,
2013-07-10 18:41:00,101.8,68.2,29.88,SSE,156,0.0,0.0,34,0.00,,,0.00,Wunderground v.1.15,2013-07-10 23:41:00,
2013-07-10 18:47:00,101.0,69.1,29.88,SSE,156,0.0,2.0,36,0.00,,,0.00,Wunderground v.1.15,2013-07-10 23:47:00,
2013-07-10 18:52:00,100.5,68.7,29.88,SSE,156,0.0,1.0,36,0.00,,,0.00,Wunderground v.1.15,2013-07-10 23:52:00,
2013-07-10 18:58:00,99.8,70.4,29.88,SSE,156,0.0,3.0,39,0.00,,,0.00,Wunderground v.1.15,2013-07-10 23:58:00,
2013-07-10 19:03:00,99.3,70.0,29.88,SSE,156,0.0,0.0,39,0.00,,,0.00,Wunderground v.1.15,2013-07-11 00:03:00,
2013-07-10 19:09:00,98.8,68.8,29.88,SSE,156,0.0,0.0,38,0.00,,,0.00,Wunderground v.1.15,2013-07-11 00:09:00,
2013-07-10 19:15:00,98.0,71.0,29.88,SSE,156,0.0,1.0,41,0.00,,,0.00,weatherlink.com 1.10,2013-07-11 00:15:00,
2013-07-10 19:20:00,97.1,69.5,29.88,SSE,156,0.0,0.0,41,0.00,,,0.00,Wunderground v.1.15,2013-07-11 00:20:00,
2013-07-10 19:26:00,96.0,69.2,29.87,SSE,156,0.0,1.0,42,0.00,,,0.00,Wunderground v.1.15,2013-07-11 00:26:00,
2013-07-10 19:32:00,95.5,71.0,29.87,SSE,156,0.0,3.0,45,0.00,,,0.00,weatherlink.com 1.10,2013-07-11 00:32:00,
2013-07-10 19:37:00,95.0,71.6,29.87,SSE,156,0.0,0.0,47,0.00,,,0.00,Wunderground v.1.15,2013-07-11 00:37:00,
2013-07-10 19:43:00,94.4,69.8,29.86,SSE,156,0.0,0.0,45,0.00,,,0.00,Wunderground v.1.15,2013-07-11 00:43:00,
2013-07-10 19:49:00,93.9,69.3,29.87,SSE,156,0.0,0.0,45,0.00,,,0.00,Wunderground v.1.15,2013-07-11 00:49:00,
2013-07-10 19:55:00,93.6,69.7,29.87,SSE,156,0.0,1.0,46,0.00,,,0.00,Wunderground v.1.15,2013-07-11 00:55:00,
2013-07-10 20:00:00,93.3,69.4,29.87,SSE,156,0.0,0.0,46,0.00,,,0.00,Wunderground v.1.15,2013-07-11 01:00:00,
2013-07-10 20:06:00,93.0,69.0,29.87,SSE,156,0.0,1.0,46,0.00,,,0.00,weatherlink.com 1.10,2013-07-11 01:06:00,
2013-07-10 20:11:00,92.7,68.9,29.87,SSE,156,0.0,0.0,46,0.00,,,0.00,Wunderground v.1.15,2013-07-11 01:11:00,
2013-07-10 20:16:00,92.4,68.6,29.87,SSE,156,0.0,0.0,46,0.00,,,0.00,Wunderground v.1.15,2013-07-11 01:16:00,
2013-07-10 20:22:00,92.3,69.2,29.87,SSE,156,0.0,0.0,47,0.00,,,0.00,Wunderground v.1.15,2013-07-11 01:22:00,
2013-07-10 20:27:00,92.1,69.6,29.87,SSE,156,0.0,1.0,48,0.00,,,0.00,Wunderground v.1.15,2013-07-11 01:27:00,
2013-07-10 20:33:00,91.8,67.4,29.87,SSE,156,0.0,0.0,45,0.00,,,0.00,Wunderground v.1.15,2013-07-11 01:33:00,
2013-07-10 20:38:00,91.6,66.6,29.87,SSE,156,0.0,0.0,44,0.00,,,0.00,Wunderground v.1.15,2013-07-11 01:38:00,
2013-07-10 20:44:00,91.6,66.6,29.86,SSE,156,0.0,2.0,44,0.00,,,0.00,Wunderground v.1.15,2013-07-11 01:44:00,
2013-07-10 20:50:00,91.6,67.3,29.86,SSE,156,0.0,0.0,45,0.00,,,0.00,Wunderground v.1.15,2013-07-11 01:50:00,
2013-07-10 20:55:00,91.4,67.1,29.87,SSE,156,0.0,0.0,45,0.00,,,0.00,Wunderground v.1.15,2013-07-11 01:55:00,
2013-07-10 21:00:00,91.2,67.5,29.87,SSE,156,0.0,2.0,46,0.00,,,0.00,Wunderground v.1.15,2013-07-11 02:00:00,
2013-07-10 21:06:00,91.0,67.3,29.87,SSE,155,1.0,2.0,46,0.00,,,0.00,Wunderground v.1.15,2013-07-11 02:06:00,
2013-07-10 21:11:00,90.8,67.8,29.88,SSE,155,1.0,1.0,47,0.00,,,0.00,Wunderground v.1.15,2013-07-11 02:11:00,
2013-07-10 21:16:00,90.6,68.2,29.88,SE,126,1.0,1.0,48,0.00,,,0.00,Wunderground v.1.15,2013-07-11 02:16:00,
2013-07-10 21:22:00,90.3,67.9,29.88,SE,126,1.0,1.0,48,0.00,,,0.00,Wunderground v.1.15,2013-07-11 02:22:00,
2013-07-10 21:28:00,90.1,67.2,29.88,SE,126,1.0,3.0,47,0.00,,,0.00,Wunderground v.1.15,2013-07-11 02:28:00,
2013-07-10 21:33:00,89.9,69.3,29.88,SE,126,1.0,4.0,51,0.00,,,0.00,Wunderground v.1.15,2013-07-11 02:33:00,
2013-07-10 21:38:00,89.7,66.8,29.88,SSE,149,1.0,4.0,47,0.00,,,0.00,Wunderground v.1.15,2013-07-11 02:38:00,
2013-07-10 21:43:00,89.6,67.9,29.88,SE,134,2.0,2.0,49,0.00,,,0.00,Wunderground v.1.15,2013-07-11 02:43:00,
2013-07-10 21:49:00,89.5,67.2,29.88,SSE,165,1.0,3.0,48,0.00,,,0.00,Wunderground v.1.15,2013-07-11 02:49:00,
2013-07-10 21:55:00,89.2,67.5,29.89,SE,130,1.0,2.0,49,0.00,,,0.00,Wunderground v.1.15,2013-07-11 02:55:00,
2013-07-10 22:00:00,88.9,67.3,29.89,SE,130,1.0,3.0,49,0.00,,,0.00,Wunderground v.1.15,2013-07-11 03:00:00,
2013-07-10 22:06:00,88.8,66.6,29.89,SSW,194,2.0,3.0,48,0.00,,,0.00,Wunderground v.1.15,2013-07-11 03:06:00,
2013-07-10 22:12:00,88.8,66.6,29.89,South,173,2.0,6.0,48,0.00,,,0.00,Wunderground v.1.15,2013-07-11 03:12:00,
2013-07-10 22:17:00,88.8,66.6,29.89,SSE,156,2.0,6.0,48,0.00,,,0.00,Wunderground v.1.15,2013-07-11 03:17:00,
2013-07-10 22:22:00,88.9,66.1,29.89,SE,130,3.0,3.0,47,0.00,,,0.00,Wunderground v.1.15,2013-07-11 03:22:00,
2013-07-10 22:28:00,89.0,66.2,29.90,SE,140,2.0,3.0,47,0.00,,,0.00,Wunderground v.1.15,2013-07-11 03:28:00,
2013-07-10 22:33:00,89.2,65.7,29.90,SE,136,2.0,3.0,46,0.00,,,0.00,Wunderground v.1.15,2013-07-11 03:33:00,
2013-07-10 22:39:00,89.3,65.8,29.90,SE,130,2.0,8.0,46,0.00,,,0.00,Wunderground v.1.15,2013-07-11 03:39:00,
2013-07-10 22:44:00,89.4,65.9,29.90,East,95,2.0,3.0,46,0.00,,,0.00,Wunderground v.1.15,2013-07-11 03:44:00,
2013-07-10 22:50:00,89.4,65.9,29.90,SSE,154,2.0,3.0,46,0.00,,,0.00,Wunderground v.1.15,2013-07-11 03:50:00,
2013-07-10 22:55:00,89.5,66.6,29.90,SSE,168,3.0,7.0,47,0.00,,,0.00,Wunderground v.1.15,2013-07-11 03:55:00,
2013-07-10 23:00:00,89.4,66.5,29.90,SSE,153,3.0,3.0,47,0.00,,,0.00,Wunderground v.1.15,2013-07-11 04:00:00,
2013-07-10 23:01:00,89.4,66.5,29.90,South,173,3.0,5.0,47,0.00,,,0.00,Wunderground v.1.15,2013-07-11 04:01:00,
2013-07-10 23:02:00,89.4,66.5,29.90,South,174,3.0,5.0,47,0.00,,,0.00,Wunderground v.1.15,2013-07-11 04:02:00,
2013-07-10 23:04:00,89.3,66.0,29.90,SE,135,3.0,8.0,47,0.00,,,0.00,weatherlink.com 1.10,2013-07-11 04:04:00,
2013-07-10 23:07:00,89.3,66.4,29.90,SSW,194,3.0,5.0,47,0.00,,,0.00,Wunderground v.1.15,2013-07-11 04:07:00,
2013-07-10 23:08:00,89.3,66.4,29.90,SE,127,3.0,5.0,47,0.00,,,0.00,Wunderground v.1.15,2013-07-11 04:08:00,
2013-07-10 23:14:00,89.2,66.9,29.90,South,171,3.0,3.0,48,0.00,,,0.00,Wunderground v.1.15,2013-07-11 04:14:00,
2013-07-10 23:20:00,89.1,66.2,29.90,SSE,167,2.0,2.0,47,0.00,,,0.00,Wunderground v.1.15,2013-07-11 04:20:00,
2013-07-10 23:25:00,89.0,66.2,29.90,ESE,121,3.0,4.0,47,0.00,,,0.00,Wunderground v.1.15,2013-07-11 04:25:00,
2013-07-10 23:31:00,89.0,66.8,29.90,South,169,3.0,3.0,48,0.00,,,0.00,Wunderground v.1.15,2013-07-11 04:31:00,
2013-07-10 23:37:00,88.8,66.6,29.90,South,178,2.0,6.0,48,0.00,,,0.00,Wunderground v.1.15,2013-07-11 04:37:00,
2013-07-10 23:42:00,88.7,66.5,29.90,SSE,159,3.0,5.0,48,0.00,,,0.00,Wunderground v.1.15,2013-07-11 04:42:00,
2013-07-10 23:48:00,88.6,67.0,29.90,SSE,160,3.0,5.0,49,0.00,,,0.00,Wunderground v.1.15,2013-07-11 04:48:00,
2013-07-10 23:53:00,88.5,66.9,29.90,SSE,168,3.0,4.0,49,0.00,,,0.00,Wunderground v.1.15,2013-07-11 04:53:00,
2013-07-10 23:59:00,88.3,66.7,29.90,SSE,156,3.0,7.0,49,0.00,,,0.00,Wunderground v.1.15,2013-07-11 04:59:00,